Regional Weather Roundup
Issued by NWS

Home | Current Version | Previous Version | Text Only | Print | Product List | Glossary On
Versions: 1 2 3 4 5 6 7 8 9 10 11 12 13 14 15 16 17 18 19 20 21 22 23 24 25 26 27 28 29 30 31 32 33 34 35 36 37 38 39 40 41 42 43 44 45 46 47 48 49 50
000
ASCA42 TJSJ 041510
RWRPR
PUERTO RICO/U.S. VIRGIN ISLANDS HOURLY WEATHER ROUNDUP
NATIONAL WEATHER SERVICE SAN JUAN PR
1100 AM AST SAT JUL 04 2015

PRZ001-004-041600-
PUERTO RICO

CITY           SKY/WX    TMP DP  RH WIND       PRES   REMARKS
SAN JUAN LMM   MOSUNNY   86  73  66 E20G25    30.10S HX  93
PONCE          MOSUNNY   91  73  55 SE14G23   30.02  HX 100
AGUADILLA      PTSUNNY   88  73  62 E21G26    30.11S HX  96
CEIBA          SUNNY     88  73  62 E13G23    30.12S HX  96
$$

PRZ006-007-041600-
U.S. VIRGIN ISLANDS

CITY           SKY/WX    TMP DP  RH WIND       PRES   REMARKS
CHARLOTTE AMA  CLOUDY    88  72  58 E14       30.09S HX  94
CHRISTIANSTED  MOSUNNY   90  72  55 E23G33    30.09S HX  96
$$

HOURLY WEATHER ROUNDUP FOR THE NEWS MEDIA

CITY           SKY/WX    TMP DP  RH WIND       PRES   REMARKS
ORLANDO        SUNNY     85  75  72 S5        30.14S HX  93
NEW YORK       CLOUDY    74  59  59 E6        29.95S
NEWARK         CLOUDY    73  60  63 N7        29.96R
CHICAGO        SUNNY     73  55  53 W6        30.00R
HARTFORD       CLOUDY    71  56  58 SE7       29.98S
BOSTON         CLOUDY    70  58  65 CALM      30.00S
DALLAS         MOSUNNY   83  72  69 S8        29.98S
PHILADELPHIA   CLOUDY    77  63  61 NE9G16    29.92S
LOS ANGELES    CLOUDY    64  60  87 CALM      29.89S
WASHINGTON DC  CLOUDY    72  69  90 VRB6      29.91F



USA.gov is the U.S. government's official web portal to all federal, state and local government web resources and services.